N4GGC Weather Reports


time (UTC)temp
F
wind
direction
speed
knots
gust
knots
rain 1hr
in
rain 24hr
in
rain mn
in
humidity
%
barometer
mb
20260502194932 61 216 2.6 7.0 0.00 0.00 0.00 33 1011.8
20260502194914 59 212 1.7 6.1 0.00 0.00 0.00 36 1011.7
20260502193922 58 153 0.9 6.1 0.00 0.00 0.00 39 1011.9
20260502193411 59 202 0.9 6.1 0.00 0.00 0.00 39 1011.8
20260502192911 59 238 1.7 9.6 0.00 0.00 0.00 39 1011.9
20260502192411 59 248 2.6 9.6 0.00 0.00 0.00 38 1011.8
20260502192131 59 122 1.7 7.0 0.00 0.00 0.00 36 1012.1
20260502191410 61 169 1.7 8.7 0.00 0.00 0.00 36 1012.3
20260502190903 60 130 1.7 8.7 0.00 0.00 0.00 41 1012.3
20260502190351 59 130 1.7 6.1 0.00 0.00 0.00 42 1012.5
20260502185843 60 130 2.6 6.1 0.00 0.00 0.00 40 1012.4
20260502185550 60 166 0.9 6.1 0.00 0.00 0.00 36 1012.5
20260502185054 59 245 0.0 1.7 0.00 0.00 0.00 39 1012.4
20260502184316 58 245 0.9 6.1 0.00 0.00 0.00 44 1012.6
20260502183809 59 241 0.9 8.7 0.00 0.00 0.00 41 1012.6
20260502183257 58 257 0.9 8.7 0.00 0.00 0.00 40 1012.5
20260502182751 59 253 0.9 5.2 0.00 0.00 0.00 39 1012.6
20260502182250 60 128 0.0 4.3 0.00 0.00 0.00 45 1013.0
20260502181749 59 128 1.7 7.0 0.00 0.00 0.00 40 1013.0
20260502181246 58 130 1.7 7.0 0.00 0.00 0.00 41 1012.8
20260502180743 59 293 0.9 8.7 0.00 0.00 0.00 43 1013.0
20260502180227 59 120 0.9 8.7 0.00 0.00 0.00 47 1013.0
20260502170116 56 244 1.7 9.6 0.00 0.00 0.00 44 1013.8
20260502164046 55 132 4.3 10.4 0.00 0.00 0.00 47 1014.3
20260502163544 55 137 1.7 7.0 0.00 0.00 0.00 47 1014.2
20260502163038 54 339 1.7 5.2 0.00 0.00 0.00 47 1014.1
20260502162534 53 202 1.7 6.1 0.00 0.00 0.00 48 1014.2
20260502162028 54 217 1.7 6.1 0.00 0.00 0.00 44 1014.4
20260502161520 55 39 0.9 5.2 0.00 0.00 0.00 48 1014.6
20260502161015 55 313 1.7 9.6 0.00 0.00 0.00 47 1014.5
20260502160504 54 246 1.7 9.6 0.00 0.00 0.00 50 1014.4
20260502151914 51 334 0.9 4.3 0.00 0.00 0.00 51 1014.3
20260502151409 52 71 1.7 4.3 0.00 0.00 0.00 52 1014.5
20260502150904 53 67 0.9 5.2 0.00 0.00 0.00 55 1014.6
20260502150354 52 122 0.9 6.1 0.00 0.00 0.00 51 1014.3
20260502130644 48 184 1.7 7.0 0.00 0.00 0.00 58 1013.9
20260502130134 48 146 2.6 7.0 0.00 0.00 0.00 58 1013.7
20260502123608 48 150 2.6 8.7 0.00 0.00 0.00 59 1013.7
20260502123052 48 9 1.7 7.0 0.00 0.00 0.00 59 1013.7
20260502122550 48 266 1.7 8.7 0.00 0.00 0.00 58 1013.6
20260502122046 48 127 1.7 8.7 0.00 0.00 0.00 58 1013.7
20260502121538 48 98 1.7 11.3 0.00 0.00 0.00 59 1013.6
20260502121033 48 78 2.6 11.3 0.00 0.00 0.00 58 1013.4
20260502120526 48 126 2.6 11.3 0.00 0.00 0.00 58 1013.5
20260502115517 48 219 2.6 10.4 0.00 0.00 0.00 58 1013.5
20260502115008 48 155 1.7 7.0 0.00 0.00 0.00 60 1013.4
20260502114723 48 164 1.7 7.0 0.00 0.00 0.00 59 1013.2
20260502113954 48 143 1.7 7.0 0.00 0.00 0.00 60 1013.3
20260502113446 48 132 0.9 6.1 0.00 0.00 0.00 60 1013.3
20260502112944 48 94 1.7 7.0 0.00 0.00 0.00 59 1013.4
20260502112706 48 167 1.7 6.1 0.00 0.00 0.00 60 1013.3
20260502112132 48 38 1.7 8.7 0.00 0.00 0.00 61 1013.2
20260502112017 48 266 1.7 6.1 0.00 0.00 0.00 61 1013.1
20260502110916 48 350 1.7 8.7 0.00 0.00 0.00 60 1013.0
20260502110416 48 26 1.7 7.0 0.00 0.00 0.00 60 1013.1
20260502105909 48 42 1.7 7.0 0.00 0.00 0.00 59 1013.1
20260502105402 48 9 1.7 8.7 0.00 0.00 0.00 59 1013.2
20260502104852 48 16 1.7 8.7 0.00 0.00 0.00 58 1013.3
20260502104614 48 261 1.7 6.1 0.00 0.00 0.00 58 1013.4
20260502104104 48 156 1.7 7.0 0.00 0.00 0.00 57 1013.4
20260502103334 48 146 2.6 8.7 0.00 0.00 0.00 57 1013.4
20260502102833 48 19 1.7 8.7 0.00 0.00 0.00 56 1013.5
20260502102326 49 36 2.6 7.0 0.00 0.00 0.00 56 1013.4
20260502101820 49 155 2.6 7.0 0.00 0.00 0.00 56 1013.5
20260502101314 49 28 1.7 10.4 0.00 0.00 0.00 56 1013.4
20260502101024 49 342 2.6 10.4 0.00 0.00 0.00 56 1013.3
20260502100303 49 241 1.7 8.7 0.00 0.00 0.00 56 1013.4
20260502090857 50 123 2.6 11.3 0.00 0.00 0.00 55 1013.2
20260502090743 50 304 2.6 11.3 0.00 0.00 0.00 55 1013.2
20260502070504 52 5 1.7 8.7 0.00 0.00 0.00 64 1012.9
20260502070006 52 335 1.7 8.7 0.00 0.00 0.00 64 1013.0
20260502065458 52 332 2.6 8.7 0.00 0.00 0.00 64 1012.9
20260502064954 52 0 2.6 9.6 0.00 0.00 0.00 63 1012.8
20260502064454 52 286 2.6 9.6 0.00 0.00 0.00 63 1013.0
20260502063953 52 0 1.7 9.6 0.00 0.00 0.00 63 1013.0
20260502063453 52 283 1.7 9.6 0.00 0.00 0.00 63 1013.0
20260502063207 52 320 1.7 9.6 0.00 0.00 0.00 63 1013.1
20260502062709 52 274 2.6 8.7 0.00 0.00 0.00 63 1013.2
20260502061950 52 305 2.6 8.7 0.00 0.00 0.00 62 1013.2
20260502061452 53 285 1.7 10.4 0.00 0.00 0.00 63 1013.2
20260502060949 53 245 2.6 10.4 0.00 0.00 0.00 62 1013.3
20260502060448 53 344 2.6 9.6 0.00 0.00 0.00 62 1013.3
20260502055933 53 18 2.6 8.7 0.00 0.00 0.00 62 1013.1
20260502055654 53 5 2.6 9.6 0.00 0.00 0.00 61 1013.1
20260502055154 53 247 2.6 9.6 0.00 0.00 0.00 61 1013.0
20260502054431 53 257 2.6 10.4 0.00 0.00 0.00 60 1013.1
20260502054151 53 269 2.6 10.4 0.00 0.00 0.00 60 1013.2
20260502053421 53 342 2.6 7.0 0.00 0.00 0.00 60 1013.3
20260502052903 54 173 2.6 9.6 0.00 0.00 0.00 60 1013.3
20260502052617 54 327 2.6 10.4 0.00 0.00 0.00 60 1013.3
20260502051849 54 321 2.6 10.4 0.00 0.00 0.00 61 1013.4
20260502051349 54 341 1.7 11.3 0.00 0.00 0.00 61 1013.4
20260502050845 54 355 2.6 11.3 0.00 0.00 0.00 61 1013.4
20260502050335 54 265 2.6 11.3 0.00 0.00 0.00 61 1013.3
20260502050059 54 288 2.6 8.7 0.00 0.00 0.00 61 1013.3
20260502045331 54 325 2.6 9.6 0.00 0.00 0.00 61 1013.3
20260502044826 54 244 4.3 9.6 0.00 0.00 0.00 60 1013.3
20260502044326 55 348 2.6 10.4 0.00 0.00 0.00 61 1013.4
20260502044048 55 276 4.3 10.4 0.00 0.00 0.00 61 1013.3
20260502043327 55 16 2.6 9.6 0.00 0.00 0.00 62 1013.4
20260502043017 55 255 1.7 7.0 0.00 0.00 0.00 63 1013.5
20260502042901 55 298 1.7 7.0 0.00 0.00 0.00 62 1013.4
20260502041757 55 338 1.7 6.1 0.00 0.00 0.00 63 1013.4
20260502041241 55 288 2.6 7.0 0.00 0.00 0.00 63 1013.4
20260502040955 56 302 1.7 7.0 0.00 0.00 0.00 64 1013.5
20260502040442 56 310 0.9 5.2 0.00 0.00 0.00 64 1013.4
20260502035709 56 244 0.9 5.2 0.00 0.00 0.00 63 1013.4
20260502035154 56 262 0.9 8.7 0.00 0.00 0.00 64 1013.6
20260502034646 56 229 0.9 8.7 0.00 0.00 0.00 63 1013.6
20260502034133 56 250 0.0 8.7 0.00 0.00 0.00 63 1013.4
20260502033623 56 301 0.0 8.7 0.00 0.00 0.00 63 1013.3
20260502033115 56 180 0.0 0.0 0.00 0.00 0.00 63 1013.2
20260502032557 56 180 0.0 0.0 0.00 0.00 0.00 63 1013.3
20260502032046 57 180 0.0 0.0 0.00 0.00 0.00 64 1013.3
20260502031541 57 180 0.0 0.0 0.00 0.00 0.00 64 1013.3
20260502031257 57 180 0.0 0.0 0.00 0.00 0.00 63 1013.1
20260502030509 57 180 0.0 4.3 0.00 0.00 0.00 63 1013.0
20260502030222 57 180 0.0 6.1 0.00 0.00 0.00 61 1013.0
20260502025445 57 333 0.0 2.6 0.00 0.00 0.00 64 1013.1
20260502024947 56 333 0.0 4.3 0.00 0.00 0.00 65 1013.0
20260502024420 55 13 0.0 6.1 0.00 0.00 0.00 71 1012.9
20260502023908 54 17 0.0 6.1 0.00 0.00 0.00 74 1012.7
20260502023357 54 73 0.0 0.0 0.00 0.00 0.00 72 1012.5
20260502022851 55 73 0.0 0.0 0.00 0.00 0.00 73 1012.5
20260502022343 55 73 0.0 0.0 0.00 0.00 0.00 74 1012.4
20260502021827 55 73 0.0 0.0 0.00 0.00 0.00 74 1012.2
20260502021318 55 73 0.0 0.0 0.00 0.00 0.00 74 1011.8
20260502020819 55 73 0.0 0.0 0.00 0.00 0.00 75 1011.8
20260502020523 55 73 0.0 0.0 0.00 0.00 0.00 73 1011.7
20260502015747 55 73 0.0 0.0 0.00 0.00 0.00 72 1011.8
20260502015247 55 73 0.0 0.0 0.00 0.00 0.00 72 1011.6
20260502014739 55 73 0.0 0.0 0.00 0.00 0.00 72 1011.6
20260502014458 55 73 0.0 0.0 0.00 0.00 0.00 72 1011.6
20260502013959 55 73 0.0 0.0 0.00 0.00 0.00 72 1011.7
20260502013227 55 73 0.0 0.9 0.00 0.00 0.00 72 1011.7
20260502012703 55 73 0.0 1.7 0.00 0.00 0.00 72 1011.6
20260502012201 54 73 0.0 1.7 0.00 0.00 0.00 72 1011.4
20260502011647 54 73 0.0 1.7 0.00 0.00 0.00 73 1011.5
20260502011149 54 73 0.0 1.7 0.00 0.00 0.00 72 1011.4
20260502010648 55 73 0.0 1.7 0.00 0.00 0.00 71 1011.4
20260502010136 55 74 0.0 0.0 0.00 0.00 0.00 70 1011.4
20260502005631 55 74 0.0 0.0 0.00 0.00 0.00 70 1011.2
20260502005107 55 74 0.0 0.0 0.00 0.00 0.00 70 1011.2
20260502004543 56 74 0.0 0.0 0.00 0.00 0.00 70 1011.2
20260502004037 56 74 0.0 0.0 0.00 0.00 0.00 67 1011.1
20260502003719 57 74 0.0 0.0 0.00 0.00 0.00 67 1011.2
20260502002953 57 74 0.0 0.0 0.00 0.00 0.00 67 1011.1
20260502002452 57 74 0.0 0.0 0.00 0.00 0.00 64 1011.1
20260502001936 58 74 0.0 0.0 0.00 0.00 0.00 63 1011.1
20260502001433 58 74 0.0 0.0 0.00 0.00 0.00 63 1011.1
20260502000928 59 74 0.0 1.7 0.00 0.00 0.00 61 1011.0
20260502000424 59 74 0.0 1.7 0.00 0.00 0.00 60 1010.9
20260501235907 60 173 0.0 0.0 0.00 0.00 0.00 59 1010.9
20260501235400 60 173 0.0 0.0 0.00 0.00 0.00 58 1010.8
20260501234848 61 172 0.9 7.0 0.00 0.00 0.00 59 1010.9
20260501234348 61 172 0.0 7.0 0.00 0.00 0.00 55 1011.0
20260501233845 61 169 0.0 1.7 0.00 0.00 0.00 57 1010.9
20260501233346 61 173 0.0 4.3 0.00 0.00 0.00 54 1010.8
20260501232834 61 173 0.9 4.3 0.00 0.00 0.00 56 1010.8
20260501232324 62 142 0.9 5.2 0.00 0.00 0.00 55 1010.9
20260501231816 62 142 0.0 5.2 0.00 0.00 0.00 52 1010.8
20260501231319 62 192 0.0 2.6 0.00 0.00 0.00 53 1010.9
20260501230805 62 199 0.0 0.0 0.00 0.00 0.00 51 1010.9
20260501230259 62 199 0.9 6.1 0.00 0.00 0.00 51 1010.8
20260501225750 62 199 0.9 6.1 0.00 0.00 0.00 51 1010.9
20260501225247 62 204 0.0 4.3 0.00 0.00 0.00 52 1010.9
20260501224741 62 178 0.9 6.1 0.00 0.00 0.00 51 1010.8
20260501224241 63 178 1.7 6.1 0.00 0.00 0.00 51 1010.8
20260501223728 63 178 2.6 6.1 0.00 0.00 0.00 49 1010.9
20260501223218 63 136 1.7 6.1 0.00 0.00 0.00 50 1011.0
20260501222717 63 136 1.7 7.0 0.00 0.00 0.00 49 1010.9
20260501222211 63 138 2.6 7.0 0.00 0.00 0.00 49 1011.0
20260501222148 63 161 2.6 8.7 0.00 0.00 0.00 49 1011.0
20260501221158 63 173 1.7 8.7 0.00 0.00 0.00 48 1010.9
20260501220655 63 140 1.7 7.0 0.00 0.00 0.00 49 1011.0
20260501220147 63 177 1.7 8.7 0.00 0.00 0.00 48 1011.1
20260501215639 63 194 0.9 8.7 0.00 0.00 0.00 48 1011.2
20260501215136 64 213 0.9 4.3 0.00 0.00 0.00 48 1011.2
20260501214629 64 219 0.9 4.3 0.00 0.00 0.00 48 1011.2
20260501214348 64 243 2.6 8.7 0.00 0.00 0.00 47 1011.1
20260501213619 64 128 2.6 8.7 0.00 0.00 0.00 46 1011.2
20260501213106 65 155 1.7 6.1 0.00 0.00 0.00 47 1011.3
20260501212604 65 202 1.7 6.1 0.00 0.00 0.00 46 1011.3
20260501212059 65 182 2.6 7.0 0.00 0.00 0.00 46 1011.4
20260501211553 65 130 1.7 7.0 0.00 0.00 0.00 46 1011.5
20260501211047 65 323 0.9 6.1 0.00 0.00 0.00 48 1011.5
20260501210541 64 163 2.6 8.7 0.00 0.00 0.00 46 1011.5
20260501210034 64 88 4.3 9.6 0.00 0.00 0.00 47 1011.5
20260501205524 64 169 5.2 11.3 0.00 0.00 0.00 45 1011.5
20260501205250 64 123 4.3 11.3 0.00 0.00 0.00 45 1011.5
20260501204517 64 114 4.3 8.7 0.00 0.00 0.00 45 1011.6
20260501204011 64 122 2.6 8.7 0.00 0.00 0.00 43 1011.7
20260501203726 65 169 0.9 6.1 0.00 0.00 0.00 46 1011.8
20260501202954 65 142 0.9 6.1 0.00 0.00 0.00 42 1011.9
20260501202454 65 302 1.7 11.3 0.00 0.00 0.00 44 1012.1
20260501201946 64 131 1.7 11.3 0.00 0.00 0.00 45 1012.3
20260501201441 65 204 2.6 10.4 0.00 0.00 0.00 42 1012.4
20260501200934 65 136 2.6 10.4 0.00 0.00 0.00 48 1012.4
20260501200429 65 155 1.7 9.6 0.00 0.00 0.00 47 1012.5
20260501195922 64 161 1.7 9.6 0.00 0.00 0.00 45 1012.5
20260501195633 65 131 1.7 9.6 0.00 0.00 0.00 45 1012.8